Year,Month,Day,Hour,Minute,Value (Times are PST for temperature in C)
2009,12,12,00,00,1.70
2009,12,12,00,01,1.70
2009,12,12,00,02,1.70
2009,12,12,00,03,1.70
2009,12,12,00,04,1.70
2009,12,12,00,05,1.70
2009,12,12,00,06,1.70
2009,12,12,00,07,1.70
2009,12,12,00,08,1.70
2009,12,12,00,09,1.70
2009,12,12,00,10,1.70
2009,12,12,00,11,1.70
2009,12,12,00,12,1.70
2009,12,12,00,13,1.70
2009,12,12,00,14,1.70
2009,12,12,00,15,1.70
2009,12,12,00,16,1.70
2009,12,12,00,17,1.70
2009,12,12,00,18,1.70
2009,12,12,00,19,1.70
2009,12,12,00,20,1.70
2009,12,12,00,53,1.90
2009,12,12,00,54,1.90
2009,12,12,00,55,1.90
2009,12,12,00,56,1.90
2009,12,12,00,57,1.90
2009,12,12,00,58,1.90
2009,12,12,00,59,1.90
2009,12,12,01,00,1.90
2009,12,12,01,01,1.90
2009,12,12,01,02,1.90
2009,12,12,01,03,1.90
2009,12,12,01,04,1.90
2009,12,12,01,05,1.90
2009,12,12,01,06,1.90
2009,12,12,01,07,1.90
2009,12,12,01,08,1.90
2009,12,12,01,09,1.90
2009,12,12,01,10,1.90
2009,12,12,01,11,1.90
2009,12,12,01,12,1.90
2009,12,12,01,13,1.90
2009,12,12,01,14,1.90
2009,12,12,01,15,1.90
2009,12,12,01,16,1.90
2009,12,12,01,17,1.90
2009,12,12,01,18,1.90
2009,12,12,01,19,1.90
2009,12,12,01,20,1.90
2009,12,12,01,21,2.00
2009,12,12,01,22,2.00
2009,12,12,01,23,2.00
2009,12,12,01,24,2.00
2009,12,12,01,25,2.00
2009,12,12,01,26,2.00
2009,12,12,01,27,2.00
2009,12,12,01,28,2.00
2009,12,12,01,29,2.00
2009,12,12,01,30,2.00
2009,12,12,01,31,2.00
2009,12,12,01,32,2.00
2009,12,12,01,33,2.00
2009,12,12,01,34,2.00
2009,12,12,01,35,2.00
2009,12,12,01,36,2.00
2009,12,12,01,37,2.00
2009,12,12,01,38,2.00
2009,12,12,01,39,2.00
2009,12,12,01,40,2.00
2009,12,12,01,41,2.00
2009,12,12,01,42,2.00
2009,12,12,01,43,2.00
2009,12,12,01,44,2.00
2009,12,12,01,45,2.00
2009,12,12,01,46,2.00
2009,12,12,01,47,2.00
2009,12,12,01,48,2.00
2009,12,12,01,49,2.00
2009,12,12,01,50,2.00
2009,12,12,01,51,2.00
2009,12,12,01,52,2.00
2009,12,12,01,53,2.00
2009,12,12,01,54,1.90
2009,12,12,01,55,2.00
2009,12,12,01,56,2.00
2009,12,12,01,57,2.00
2009,12,12,01,58,1.90
2009,12,12,01,59,2.00
2009,12,12,02,00,1.90
2009,12,12,02,01,1.90
2009,12,12,02,02,1.90
2009,12,12,02,03,1.90
2009,12,12,02,04,1.90
2009,12,12,02,05,1.90
2009,12,12,02,06,1.90
2009,12,12,02,07,1.90
2009,12,12,02,08,1.90
2009,12,12,02,09,1.90
2009,12,12,02,10,1.90
2009,12,12,02,11,1.90
2009,12,12,02,12,1.90
2009,12,12,02,13,1.90
2009,12,12,02,46,1.80
2009,12,12,02,47,1.80
2009,12,12,02,48,1.80
2009,12,12,02,49,1.80
2009,12,12,02,50,1.80
2009,12,12,02,51,1.80
2009,12,12,02,52,1.80
2009,12,12,02,53,1.80
2009,12,12,02,54,1.80
2009,12,12,02,55,1.80
2009,12,12,02,56,1.80
2009,12,12,02,57,1.80
2009,12,12,02,58,1.80
2009,12,12,02,59,1.80
2009,12,12,03,00,1.80
2009,12,12,03,01,1.80
2009,12,12,03,02,1.80
2009,12,12,03,03,1.80
2009,12,12,03,04,1.80
2009,12,12,03,05,1.80
2009,12,12,03,06,1.80
2009,12,12,03,07,1.80
2009,12,12,03,08,1.80
2009,12,12,03,09,1.80
2009,12,12,03,10,1.80
2009,12,12,03,11,1.80
2009,12,12,03,12,1.80
2009,12,12,03,13,1.80
2009,12,12,03,14,1.80
2009,12,12,03,15,1.80
2009,12,12,03,16,1.80
2009,12,12,03,17,1.90
2009,12,12,03,18,1.90
2009,12,12,03,19,1.90
2009,12,12,03,20,1.90
2009,12,12,03,21,1.90
2009,12,12,03,22,1.90
2009,12,12,03,23,1.90
2009,12,12,03,24,1.90
2009,12,12,03,25,1.90
2009,12,12,03,26,1.90
2009,12,12,03,27,1.90
2009,12,12,03,28,1.90
2009,12,12,03,29,1.90
2009,12,12,03,30,1.90
2009,12,12,03,31,1.90
2009,12,12,03,32,1.90
2009,12,12,03,33,1.90
2009,12,12,03,34,1.90
2009,12,12,03,35,1.90
2009,12,12,03,36,1.90
2009,12,12,03,37,1.90
2009,12,12,03,38,1.90
2009,12,12,03,39,1.90
2009,12,12,03,40,1.90
2009,12,12,03,41,1.90
2009,12,12,03,42,1.90
2009,12,12,03,43,1.90
2009,12,12,03,44,1.90
2009,12,12,03,45,1.90
2009,12,12,03,46,1.90
2009,12,12,03,47,1.80
2009,12,12,03,48,1.80
2009,12,12,03,49,1.80
2009,12,12,03,50,1.80
2009,12,12,03,51,1.80
2009,12,12,03,52,1.80
2009,12,12,03,53,1.80
2009,12,12,03,54,1.80
2009,12,12,03,55,1.80
2009,12,12,03,56,1.80
2009,12,12,03,57,1.80
2009,12,12,03,58,1.80
2009,12,12,03,59,1.80
2009,12,12,04,00,1.80
2009,12,12,04,01,1.80
2009,12,12,04,02,1.80
2009,12,12,04,03,1.80
2009,12,12,04,04,1.80
2009,12,12,04,05,1.80
2009,12,12,04,06,1.80
2009,12,12,04,07,1.80
2009,12,12,04,08,1.80
2009,12,12,04,09,1.80
2009,12,12,04,10,1.80
2009,12,12,04,11,1.80
2009,12,12,04,12,1.80
2009,12,12,04,13,1.80
2009,12,12,04,14,1.80
2009,12,12,04,15,1.80
2009,12,12,04,16,1.80
2009,12,12,04,17,1.80
2009,12,12,04,18,1.80
2009,12,12,04,51,2.20
2009,12,12,04,52,2.20
2009,12,12,04,53,2.20
2009,12,12,04,54,2.20
2009,12,12,04,55,2.20
2009,12,12,04,56,2.20
2009,12,12,04,57,2.20
2009,12,12,04,58,2.20
2009,12,12,04,59,2.20
2009,12,12,05,00,2.20
2009,12,12,05,01,2.20
2009,12,12,05,02,2.10
2009,12,12,05,03,2.10
2009,12,12,05,04,2.10
2009,12,12,05,05,2.10
2009,12,12,05,06,2.10
2009,12,12,05,07,2.10
2009,12,12,05,08,2.00
2009,12,12,05,09,2.00
2009,12,12,05,10,2.00
2009,12,12,05,11,2.00
2009,12,12,05,12,2.00
2009,12,12,05,13,2.00
2009,12,12,05,14,2.00
2009,12,12,05,15,2.00
2009,12,12,05,16,2.00
2009,12,12,05,17,2.00
2009,12,12,05,18,1.90
2009,12,12,05,19,1.90
2009,12,12,05,20,1.90
2009,12,12,05,21,1.90
2009,12,12,05,22,1.90
2009,12,12,05,23,1.90
2009,12,12,05,24,1.90
2009,12,12,05,25,1.90
2009,12,12,05,26,1.90
2009,12,12,05,27,1.90
2009,12,12,05,28,1.90
2009,12,12,05,29,1.90
2009,12,12,05,30,1.90
2009,12,12,05,31,1.90
2009,12,12,05,32,1.90
2009,12,12,05,33,1.90
2009,12,12,05,34,1.90
2009,12,12,05,35,1.90
2009,12,12,05,36,1.90
2009,12,12,05,37,1.90
2009,12,12,05,38,1.90
2009,12,12,05,39,1.90
2009,12,12,05,40,1.90
2009,12,12,05,41,1.90
2009,12,12,05,42,1.90
2009,12,12,05,43,1.90
2009,12,12,05,44,1.90
2009,12,12,05,45,1.90
2009,12,12,05,46,1.90
2009,12,12,05,47,1.90
2009,12,12,05,48,1.90
2009,12,12,05,49,1.90
2009,12,12,05,50,1.90
2009,12,12,05,51,1.90
2009,12,12,05,52,1.90
2009,12,12,05,53,1.90
2009,12,12,05,54,1.90
2009,12,12,05,55,1.90
2009,12,12,05,56,1.90
2009,12,12,05,57,1.90
2009,12,12,05,58,1.90
2009,12,12,05,59,1.90
2009,12,12,06,00,1.90
2009,12,12,06,01,1.90
2009,12,12,06,02,1.90
2009,12,12,06,03,1.90
2009,12,12,06,04,1.90
2009,12,12,06,05,1.90
2009,12,12,06,06,1.90
2009,12,12,06,07,1.90
2009,12,12,06,08,1.90
2009,12,12,06,09,1.90
2009,12,12,06,10,1.90
2009,12,12,06,11,1.90
2009,12,12,06,43,1.80
2009,12,12,06,44,1.80
2009,12,12,06,45,1.80
2009,12,12,06,46,1.80
2009,12,12,06,47,1.80
2009,12,12,06,48,1.80
2009,12,12,06,49,1.80
2009,12,12,06,50,1.80
2009,12,12,06,51,1.80
2009,12,12,06,52,1.80
2009,12,12,06,53,1.80
2009,12,12,06,54,1.70
2009,12,12,06,55,1.80
2009,12,12,06,56,1.70
2009,12,12,06,57,1.70
2009,12,12,06,58,1.70
2009,12,12,06,59,1.70
2009,12,12,07,00,1.70
2009,12,12,07,01,1.70
2009,12,12,07,02,1.70
2009,12,12,07,03,1.70
2009,12,12,07,04,1.70
2009,12,12,07,05,1.70
2009,12,12,07,06,1.70
2009,12,12,07,07,1.70
2009,12,12,07,08,1.70
2009,12,12,07,09,1.70
2009,12,12,07,10,1.70
2009,12,12,07,11,1.70
2009,12,12,07,12,1.70
2009,12,12,07,13,1.70
2009,12,12,07,14,1.70
2009,12,12,07,15,1.70
2009,12,12,07,16,1.70
2009,12,12,07,17,1.70
2009,12,12,07,18,1.70
2009,12,12,07,19,1.70
2009,12,12,07,20,1.70
2009,12,12,07,21,1.70
2009,12,12,07,22,1.70
2009,12,12,07,23,1.70
2009,12,12,07,24,1.70
2009,12,12,07,25,1.70
2009,12,12,07,26,1.70
2009,12,12,07,27,1.70
2009,12,12,07,28,1.70
2009,12,12,07,29,1.70
2009,12,12,07,30,1.70
2009,12,12,07,31,1.70
2009,12,12,07,32,1.70
2009,12,12,07,33,1.70
2009,12,12,07,34,1.70
2009,12,12,07,35,1.70
2009,12,12,07,36,1.70
2009,12,12,07,37,1.70
2009,12,12,07,38,1.70
2009,12,12,07,39,1.70
2009,12,12,07,40,1.70
2009,12,12,07,41,1.70
2009,12,12,07,42,1.70
2009,12,12,07,43,1.70
2009,12,12,07,44,1.70
2009,12,12,07,45,1.70
2009,12,12,07,46,1.70
2009,12,12,07,47,1.70
2009,12,12,07,48,1.70
2009,12,12,07,49,1.70
2009,12,12,07,50,1.70
2009,12,12,07,51,1.70
2009,12,12,07,52,1.70
2009,12,12,07,53,1.70
2009,12,12,07,54,1.70
2009,12,12,07,55,1.70
2009,12,12,07,56,1.70
2009,12,12,07,57,1.70
2009,12,12,07,58,1.70
2009,12,12,07,59,1.70
2009,12,12,08,00,1.70
2009,12,12,08,01,1.70
2009,12,12,08,02,1.70
2009,12,12,08,03,1.70
2009,12,12,08,04,1.70
2009,12,12,08,37,1.80
2009,12,12,08,38,1.80
2009,12,12,08,39,1.80
2009,12,12,08,40,1.80
2009,12,12,08,41,1.80
2009,12,12,08,42,1.80
2009,12,12,08,43,1.80
2009,12,12,08,44,1.80
2009,12,12,08,45,1.80
2009,12,12,08,46,1.80
2009,12,12,08,47,1.80
2009,12,12,08,48,1.80
2009,12,12,08,49,1.80
2009,12,12,08,50,1.80
2009,12,12,08,51,1.80
2009,12,12,08,52,1.80
2009,12,12,08,53,1.80
2009,12,12,08,54,1.80
2009,12,12,08,55,1.80
2009,12,12,08,56,1.80
2009,12,12,08,57,1.80
2009,12,12,08,58,1.90
2009,12,12,08,59,1.80
2009,12,12,09,00,1.90
2009,12,12,09,01,1.90
2009,12,12,09,02,1.90
2009,12,12,09,03,1.90
2009,12,12,09,04,1.90
2009,12,12,09,05,1.90
2009,12,12,09,06,1.90
2009,12,12,09,07,1.90
2009,12,12,09,08,1.90
2009,12,12,09,09,2.00
2009,12,12,09,10,2.00
2009,12,12,09,11,2.00
2009,12,12,09,12,2.00
2009,12,12,09,13,2.00
2009,12,12,09,14,2.00
2009,12,12,09,15,2.00
2009,12,12,09,16,2.00
2009,12,12,09,17,2.00
2009,12,12,09,18,2.00
2009,12,12,09,19,2.10
2009,12,12,09,20,2.10
2009,12,12,09,21,2.10
2009,12,12,09,22,2.10
2009,12,12,09,23,2.10
2009,12,12,09,24,2.10
2009,12,12,09,25,2.10
2009,12,12,09,26,2.10
2009,12,12,09,27,2.10
2009,12,12,09,28,2.10
2009,12,12,09,29,2.20
2009,12,12,09,30,2.20
2009,12,12,09,31,2.20
2009,12,12,09,32,2.20
2009,12,12,09,33,2.20
2009,12,12,09,34,2.20
2009,12,12,09,35,2.20
2009,12,12,09,36,2.20
2009,12,12,09,37,2.20
2009,12,12,09,38,2.20
2009,12,12,09,39,2.20
2009,12,12,09,40,2.20
2009,12,12,09,41,2.20
2009,12,12,09,42,2.20
2009,12,12,09,43,2.20
2009,12,12,09,44,2.30
2009,12,12,09,45,2.30
2009,12,12,09,46,2.30
2009,12,12,09,47,2.30
2009,12,12,09,48,2.30
2009,12,12,09,49,2.30
2009,12,12,09,50,2.30
2009,12,12,09,51,2.30
2009,12,12,09,52,2.30
2009,12,12,09,53,2.30
2009,12,12,09,54,2.30
2009,12,12,09,55,2.30
2009,12,12,09,56,2.30
2009,12,12,09,57,2.30
2009,12,12,10,30,2.50
2009,12,12,10,31,2.50
2009,12,12,10,32,2.50
2009,12,12,10,33,2.50
2009,12,12,10,34,2.50
2009,12,12,10,35,2.50
2009,12,12,10,36,2.50
2009,12,12,10,37,2.50
2009,12,12,10,38,2.50
2009,12,12,10,39,2.50
2009,12,12,10,40,2.60
2009,12,12,10,41,2.60
2009,12,12,10,42,2.60
2009,12,12,10,43,2.60
2009,12,12,10,44,2.60
2009,12,12,10,45,2.60
2009,12,12,10,46,2.60
2009,12,12,10,47,2.60
2009,12,12,10,48,2.60
2009,12,12,10,49,2.60
2009,12,12,10,50,2.70
2009,12,12,10,51,2.70
2009,12,12,10,52,2.70
2009,12,12,10,53,2.70
2009,12,12,10,54,2.70
2009,12,12,10,55,2.70
2009,12,12,10,56,2.70
2009,12,12,10,57,2.70
2009,12,12,10,58,2.70
2009,12,12,10,59,2.70
2009,12,12,11,00,2.70
2009,12,12,11,01,2.70
2009,12,12,11,02,2.70
2009,12,12,11,03,2.70
2009,12,12,11,04,2.70
2009,12,12,11,05,2.70
2009,12,12,11,06,2.70
2009,12,12,11,07,2.70
2009,12,12,11,08,2.70
2009,12,12,11,09,2.70
2009,12,12,11,10,2.70
2009,12,12,11,11,2.70
2009,12,12,11,12,2.70
2009,12,12,11,13,2.80
2009,12,12,11,14,2.80
2009,12,12,11,15,2.80
2009,12,12,11,16,2.80
2009,12,12,11,17,2.80
2009,12,12,11,18,2.80
2009,12,12,11,19,2.80
2009,12,12,11,20,2.80
2009,12,12,11,21,2.80
2009,12,12,11,22,2.80
2009,12,12,11,23,2.80
2009,12,12,11,24,2.80
2009,12,12,11,25,2.80
2009,12,12,11,26,2.80
2009,12,12,11,27,2.90
2009,12,12,11,28,2.90
2009,12,12,11,29,2.90
2009,12,12,11,30,2.90
2009,12,12,11,31,2.90
2009,12,12,11,32,2.90
2009,12,12,11,33,2.90
2009,12,12,11,34,2.90
2009,12,12,11,35,2.90
2009,12,12,11,36,2.90
2009,12,12,11,37,2.90
2009,12,12,11,38,3.00
2009,12,12,11,39,3.00
2009,12,12,11,40,3.00
2009,12,12,11,41,3.00
2009,12,12,11,42,3.00
2009,12,12,11,43,3.10
2009,12,12,11,44,3.10
2009,12,12,11,45,3.10
2009,12,12,11,46,3.10
2009,12,12,11,47,3.10
2009,12,12,11,48,3.10
2009,12,12,11,49,3.10
2009,12,12,11,50,3.10
2009,12,12,11,51,3.10
2009,12,12,11,52,3.10
2009,12,12,11,53,3.10
2009,12,12,11,54,3.10
2009,12,12,11,55,3.20
2009,12,12,11,56,3.20
2009,12,12,11,57,3.20
2009,12,12,11,58,3.20
2009,12,12,11,59,3.20
2009,12,12,12,00,3.20
2009,12,12,12,01,3.20
2009,12,12,12,02,3.20
2009,12,12,12,03,3.20
2009,12,12,12,04,3.20
2009,12,12,12,05,3.30
2009,12,12,12,06,3.30
2009,12,12,12,07,3.30
2009,12,12,12,08,3.30
2009,12,12,12,09,3.20
2009,12,12,12,10,3.20
2009,12,12,12,11,3.20
2009,12,12,12,12,3.20
2009,12,12,12,13,3.30
2009,12,12,12,14,3.30
2009,12,12,12,15,3.30
2009,12,12,12,16,3.30
2009,12,12,12,17,3.20
2009,12,12,12,18,3.20
2009,12,12,12,19,3.30
2009,12,12,12,20,3.30
2009,12,12,12,21,3.30
2009,12,12,12,22,3.30
2009,12,12,12,23,3.20
2009,12,12,12,24,3.20
2009,12,12,12,25,3.20
2009,12,12,12,26,3.20
2009,12,12,12,27,3.20
2009,12,12,12,28,3.20
2009,12,12,12,29,3.20
2009,12,12,12,30,3.20
2009,12,12,12,31,3.20
2009,12,12,12,32,3.20
2009,12,12,12,33,3.20
2009,12,12,12,34,3.20
2009,12,12,12,35,3.20
2009,12,12,12,36,3.20
2009,12,12,12,37,3.20
2009,12,12,12,38,3.20
2009,12,12,12,39,3.20
2009,12,12,12,40,3.20
2009,12,12,12,41,3.20
2009,12,12,12,42,3.20
2009,12,12,12,43,3.20
2009,12,12,12,44,3.20
2009,12,12,12,45,3.20
2009,12,12,12,46,3.20
2009,12,12,12,47,3.20
2009,12,12,12,48,3.20
2009,12,12,12,49,3.20
2009,12,12,12,50,3.20
2009,12,12,12,51,3.20
2009,12,12,12,52,3.20
2009,12,12,12,53,3.20
2009,12,12,12,54,3.20
2009,12,12,12,55,3.20
2009,12,12,12,56,3.20
2009,12,12,12,57,3.20
2009,12,12,12,58,3.20
2009,12,12,12,59,3.20
2009,12,12,13,00,3.20
2009,12,12,13,01,3.20
2009,12,12,13,02,3.20
2009,12,12,13,03,3.20
2009,12,12,13,04,3.20
2009,12,12,13,05,3.20
2009,12,12,13,06,3.20
2009,12,12,13,07,3.20
2009,12,12,13,08,3.20
2009,12,12,13,09,3.20
2009,12,12,13,10,3.20
2009,12,12,13,11,3.20
2009,12,12,13,12,3.20
2009,12,12,13,13,3.20
2009,12,12,13,14,3.20
2009,12,12,13,15,3.10
2009,12,12,13,16,3.10
2009,12,12,13,17,3.10
2009,12,12,13,18,3.10
2009,12,12,13,19,3.10
2009,12,12,13,20,3.10
2009,12,12,13,21,3.10
2009,12,12,13,22,3.10
2009,12,12,13,23,3.10
2009,12,12,13,24,3.10
2009,12,12,13,25,3.00
2009,12,12,13,26,3.00
2009,12,12,13,27,3.00
2009,12,12,13,28,3.00
2009,12,12,13,29,3.00
2009,12,12,13,30,3.00
2009,12,12,13,31,3.00
2009,12,12,13,32,3.00
2009,12,12,13,33,3.00
2009,12,12,13,34,3.00
2009,12,12,13,35,3.00
2009,12,12,13,36,3.00
2009,12,12,13,37,3.00
2009,12,12,13,38,3.00
2009,12,12,13,39,3.00
2009,12,12,13,40,3.00
2009,12,12,13,41,3.00
2009,12,12,13,42,3.00
2009,12,12,13,43,3.00
2009,12,12,13,44,3.00
2009,12,12,13,45,3.10
2009,12,12,13,46,3.10
2009,12,12,13,47,3.10
2009,12,12,13,48,3.10
2009,12,12,13,49,3.10
2009,12,12,13,50,3.10
2009,12,12,13,51,3.10
2009,12,12,13,52,3.10
2009,12,12,13,53,3.10
2009,12,12,13,54,3.10
2009,12,12,13,55,3.10
2009,12,12,14,11,3.00
2009,12,12,14,12,3.00
2009,12,12,14,13,3.00
2009,12,12,14,14,3.00
2009,12,12,14,15,3.00
2009,12,12,14,16,3.00
2009,12,12,14,17,2.90
2009,12,12,14,18,2.90
2009,12,12,14,19,2.90
2009,12,12,14,20,2.90
2009,12,12,14,21,2.90
2009,12,12,14,22,2.90
2009,12,12,14,23,2.90
2009,12,12,14,24,2.90
2009,12,12,14,25,2.90
2009,12,12,14,26,2.90
2009,12,12,14,27,2.90
2009,12,12,14,28,2.90
2009,12,12,14,29,2.90
2009,12,12,14,30,2.90
2009,12,12,14,31,2.90
2009,12,12,14,32,2.90
2009,12,12,14,33,2.90
2009,12,12,14,34,2.90
2009,12,12,14,35,2.90
2009,12,12,14,36,2.90
2009,12,12,14,37,2.90
2009,12,12,14,38,2.90
2009,12,12,14,39,2.90
2009,12,12,14,40,2.90
2009,12,12,14,41,2.90
2009,12,12,14,42,2.90
2009,12,12,14,43,3.00
2009,12,12,14,44,3.00
2009,12,12,14,45,3.00
2009,12,12,14,46,3.00
2009,12,12,14,47,3.00
2009,12,12,14,48,3.00
2009,12,12,14,49,3.00
2009,12,12,14,50,3.00
2009,12,12,14,51,3.00
2009,12,12,14,52,3.00
2009,12,12,14,53,3.00
2009,12,12,14,54,3.00
2009,12,12,14,55,2.90
2009,12,12,14,56,2.90
2009,12,12,14,57,2.90
2009,12,12,14,58,2.90
2009,12,12,14,59,2.90
2009,12,12,15,00,2.90
2009,12,12,15,01,2.90
2009,12,12,15,02,2.90
2009,12,12,15,03,2.90
2009,12,12,15,04,3.00
2009,12,12,15,05,3.00
2009,12,12,15,06,3.00
2009,12,12,15,07,3.00
2009,12,12,15,08,2.90
2009,12,12,15,09,2.90
2009,12,12,15,10,2.90
2009,12,12,15,11,2.90
2009,12,12,15,12,2.90
2009,12,12,15,13,2.90
2009,12,12,15,14,2.90
2009,12,12,15,15,2.90
2009,12,12,15,16,2.90
2009,12,12,15,17,2.90
2009,12,12,15,18,2.90
2009,12,12,15,19,2.90
2009,12,12,15,20,2.90
2009,12,12,15,21,3.00
2009,12,12,15,22,3.00
2009,12,12,15,23,3.00
2009,12,12,15,24,2.90
2009,12,12,15,25,3.00
2009,12,12,15,26,3.00
2009,12,12,15,27,3.00
2009,12,12,15,28,3.00
2009,12,12,15,29,3.00
2009,12,12,15,30,2.90
2009,12,12,15,31,2.90
2009,12,12,15,32,2.90
2009,12,12,15,33,2.90
2009,12,12,15,34,2.90
2009,12,12,15,35,2.90
2009,12,12,15,36,2.90
2009,12,12,15,37,2.90
2009,12,12,15,38,2.90
2009,12,12,15,39,2.90
2009,12,12,15,40,2.90
2009,12,12,15,41,2.90
2009,12,12,15,42,2.90
2009,12,12,15,43,2.90
2009,12,12,15,44,2.90
2009,12,12,15,45,2.90
2009,12,12,15,46,2.90
2009,12,12,15,47,2.90
2009,12,12,15,48,2.90
2009,12,12,16,21,2.60
2009,12,12,16,22,2.60
2009,12,12,16,23,2.60
2009,12,12,16,24,2.60
2009,12,12,16,25,2.50
2009,12,12,16,26,2.50
2009,12,12,16,27,2.50
2009,12,12,16,28,2.50
2009,12,12,16,29,2.50
2009,12,12,16,30,2.50
2009,12,12,16,31,2.50
2009,12,12,16,32,2.40
2009,12,12,16,33,2.40
2009,12,12,16,34,2.40
2009,12,12,16,35,2.40
2009,12,12,16,36,2.40
2009,12,12,16,37,2.40
2009,12,12,16,38,2.40
2009,12,12,16,39,2.40
2009,12,12,16,40,2.40
2009,12,12,16,41,2.40
2009,12,12,16,42,2.40
2009,12,12,16,43,2.30
2009,12,12,16,44,2.30
2009,12,12,16,45,2.30
2009,12,12,16,46,2.30
2009,12,12,16,47,2.30
2009,12,12,16,48,2.30
2009,12,12,16,49,2.30
2009,12,12,16,50,2.30
2009,12,12,16,51,2.30
2009,12,12,16,52,2.30
2009,12,12,16,53,2.30
2009,12,12,16,54,2.30
2009,12,12,16,55,2.30
2009,12,12,16,56,2.30
2009,12,12,16,57,2.30
2009,12,12,16,58,2.30
2009,12,12,16,59,2.30
2009,12,12,17,00,2.30
2009,12,12,17,01,2.30
2009,12,12,17,02,2.30
2009,12,12,17,03,2.30
2009,12,12,17,04,2.30
2009,12,12,17,05,2.30
2009,12,12,17,06,2.30
2009,12,12,17,07,2.30
2009,12,12,17,08,2.30
2009,12,12,17,09,2.30
2009,12,12,17,10,2.30
2009,12,12,17,11,2.30
2009,12,12,17,12,2.30
2009,12,12,17,13,2.20
2009,12,12,17,14,2.20
2009,12,12,17,15,2.20
2009,12,12,17,16,2.20
2009,12,12,17,17,2.20
2009,12,12,17,18,2.20
2009,12,12,17,19,2.20
2009,12,12,17,20,2.20
2009,12,12,17,21,2.20
2009,12,12,17,22,2.20
2009,12,12,17,23,2.20
2009,12,12,17,24,2.20
2009,12,12,17,25,2.20
2009,12,12,17,26,2.20
2009,12,12,17,27,2.20
2009,12,12,17,28,2.20
2009,12,12,17,29,2.20
2009,12,12,17,30,2.20
2009,12,12,17,31,2.20
2009,12,12,17,32,2.20
2009,12,12,17,33,2.20
2009,12,12,17,34,2.20
2009,12,12,17,35,2.20
2009,12,12,17,36,2.20
2009,12,12,17,37,2.20
2009,12,12,17,38,2.20
2009,12,12,17,39,2.20
2009,12,12,17,40,2.20
2009,12,12,17,41,2.20
2009,12,12,17,42,2.20
2009,12,12,17,43,2.20
2009,12,12,17,44,2.20
2009,12,12,17,45,2.20
2009,12,12,17,46,2.20
2009,12,12,17,47,2.20
2009,12,12,17,48,2.20
2009,12,12,17,49,2.20
2009,12,12,17,50,2.20
2009,12,12,17,51,2.20
2009,12,12,17,52,2.20
2009,12,12,17,53,2.20
2009,12,12,17,54,2.20
2009,12,12,17,55,2.20
2009,12,12,17,56,2.20
2009,12,12,17,57,2.20
2009,12,12,17,58,2.20
2009,12,12,17,59,2.20
2009,12,12,18,00,2.20
2009,12,12,18,01,2.20
2009,12,12,18,02,2.20
2009,12,12,18,03,2.20
2009,12,12,18,04,2.20
2009,12,12,18,05,2.20
2009,12,12,18,06,2.20
2009,12,12,18,07,2.20
2009,12,12,18,08,2.20
2009,12,12,18,09,2.20
2009,12,12,18,10,2.20
2009,12,12,18,11,2.20
2009,12,12,18,12,2.20
2009,12,12,18,13,2.20
2009,12,12,18,14,2.20
2009,12,12,18,15,2.20
2009,12,12,18,16,2.20
2009,12,12,18,17,2.20
2009,12,12,18,18,2.20
2009,12,12,18,19,2.20
2009,12,12,18,20,2.20
2009,12,12,18,21,2.20
2009,12,12,18,22,2.20
2009,12,12,18,23,2.20
2009,12,12,18,24,2.20
2009,12,12,18,25,2.20
2009,12,12,18,26,2.20
2009,12,12,18,27,2.20
2009,12,12,18,28,2.20
2009,12,12,18,29,2.20
2009,12,12,18,30,2.10
2009,12,12,18,31,2.10
2009,12,12,18,32,2.10
2009,12,12,18,33,2.10
2009,12,12,18,34,2.10
2009,12,12,18,35,2.10
2009,12,12,18,36,2.10
2009,12,12,18,37,2.10
2009,12,12,18,38,2.10
2009,12,12,18,39,2.10
2009,12,12,18,40,2.10
2009,12,12,18,41,2.10
2009,12,12,18,42,2.10
2009,12,12,18,43,2.10
2009,12,12,18,44,2.10
2009,12,12,18,45,2.10
2009,12,12,18,46,2.10
2009,12,12,18,47,2.10
2009,12,12,18,48,2.10
2009,12,12,18,49,2.10
2009,12,12,18,50,2.10
2009,12,12,18,51,2.10
2009,12,12,18,52,2.10
2009,12,12,18,53,2.10
2009,12,12,18,54,2.10
2009,12,12,18,55,2.10
2009,12,12,18,56,2.10
2009,12,12,18,57,2.10
2009,12,12,18,58,2.10
2009,12,12,18,59,2.10
2009,12,12,19,00,2.10
2009,12,12,19,01,2.10
2009,12,12,19,02,2.10
2009,12,12,19,03,2.10
2009,12,12,19,04,2.10
2009,12,12,19,05,2.10
2009,12,12,19,06,2.10
2009,12,12,19,07,2.10
2009,12,12,19,08,2.10
2009,12,12,19,09,2.10
2009,12,12,19,10,2.10
2009,12,12,19,11,2.10
2009,12,12,19,12,2.10
2009,12,12,19,13,2.10
2009,12,12,19,14,2.10
2009,12,12,19,15,2.10
2009,12,12,19,16,2.10
2009,12,12,19,17,2.10
2009,12,12,19,18,2.10
2009,12,12,19,19,2.10
2009,12,12,19,20,2.10
2009,12,12,19,21,2.10
2009,12,12,19,22,2.10
2009,12,12,19,23,2.10
2009,12,12,19,24,2.10
2009,12,12,19,25,2.00
2009,12,12,19,26,2.00
2009,12,12,19,27,2.00
2009,12,12,19,28,2.00
2009,12,12,19,29,2.00
2009,12,12,19,30,2.00
2009,12,12,19,31,2.00
2009,12,12,19,32,2.00
2009,12,12,19,33,2.00
2009,12,12,19,34,2.00
2009,12,12,19,35,2.00
2009,12,12,19,36,2.00
2009,12,12,19,37,2.00
2009,12,12,19,38,2.00
2009,12,12,19,39,2.00
2009,12,12,19,40,2.00
2009,12,12,19,41,2.00
2009,12,12,19,42,2.00
2009,12,12,19,43,2.00
2009,12,12,19,44,2.00
2009,12,12,19,45,2.00
2009,12,12,19,46,2.00
2009,12,12,19,47,2.00
2009,12,12,20,20,1.90
2009,12,12,20,21,1.90
2009,12,12,20,22,1.90
2009,12,12,20,23,1.90
2009,12,12,20,24,1.90
2009,12,12,20,25,1.90
2009,12,12,20,26,1.90
2009,12,12,20,27,1.90
2009,12,12,20,28,1.90
2009,12,12,20,29,1.90
2009,12,12,20,30,1.90
2009,12,12,20,31,1.90
2009,12,12,20,32,1.90
2009,12,12,20,33,1.90
2009,12,12,20,34,1.90
2009,12,12,20,35,1.90
2009,12,12,20,36,1.90
2009,12,12,20,37,1.90
2009,12,12,20,38,1.90
2009,12,12,20,39,1.90
2009,12,12,20,40,1.90
2009,12,12,20,41,1.90
2009,12,12,20,42,1.90
2009,12,12,20,43,1.90
2009,12,12,20,44,1.90
2009,12,12,20,45,1.90
2009,12,12,20,46,1.90
2009,12,12,20,47,2.00
2009,12,12,20,48,2.00
2009,12,12,20,49,2.00
2009,12,12,20,50,2.00
2009,12,12,20,51,2.00
2009,12,12,20,52,2.00
2009,12,12,20,53,2.00
2009,12,12,20,54,2.00
2009,12,12,20,55,2.00
2009,12,12,20,56,2.00
2009,12,12,20,57,2.00
2009,12,12,20,58,2.00
2009,12,12,20,59,2.00
2009,12,12,21,00,2.00
2009,12,12,21,01,2.00
2009,12,12,21,02,2.00
2009,12,12,21,03,2.00
2009,12,12,21,04,2.00
2009,12,12,21,05,2.00
2009,12,12,21,06,2.00
2009,12,12,21,07,2.00
2009,12,12,21,08,2.00
2009,12,12,21,09,2.00
2009,12,12,21,10,2.00
2009,12,12,21,11,2.00
2009,12,12,21,12,2.00
2009,12,12,21,13,2.00
2009,12,12,21,14,2.00
2009,12,12,21,15,2.00
2009,12,12,21,16,2.00
2009,12,12,21,17,2.00
2009,12,12,21,18,2.00
2009,12,12,21,19,2.00
2009,12,12,21,20,2.00
2009,12,12,21,21,2.00
2009,12,12,21,22,2.00
2009,12,12,21,23,2.00
2009,12,12,21,24,2.00
2009,12,12,21,25,2.00
2009,12,12,21,26,2.00
2009,12,12,21,27,2.00
2009,12,12,21,28,2.00
2009,12,12,21,29,2.00
2009,12,12,21,30,2.00
2009,12,12,21,31,2.00
2009,12,12,21,32,2.00
2009,12,12,21,33,2.00
2009,12,12,21,34,2.00
2009,12,12,21,35,2.00
2009,12,12,21,36,2.00
2009,12,12,21,37,2.00
2009,12,12,21,38,2.00
2009,12,12,21,39,2.00
2009,12,12,21,40,2.00
2009,12,12,22,12,2.10
2009,12,12,22,13,2.10
2009,12,12,22,14,2.10
2009,12,12,22,15,2.10
2009,12,12,22,16,2.10
2009,12,12,22,17,2.00
2009,12,12,22,18,2.10
2009,12,12,22,19,2.00
2009,12,12,22,20,2.00
2009,12,12,22,21,2.00
2009,12,12,22,22,2.00
2009,12,12,22,23,2.00
2009,12,12,22,24,2.00
2009,12,12,22,25,2.00
2009,12,12,22,26,2.00
2009,12,12,22,27,2.00
2009,12,12,22,28,1.90
2009,12,12,22,29,1.90
2009,12,12,22,30,1.90
2009,12,12,22,31,1.90
2009,12,12,22,32,1.90
2009,12,12,22,33,1.90
2009,12,12,22,34,1.90
2009,12,12,22,35,1.90
2009,12,12,22,36,1.90
2009,12,12,22,37,1.90
2009,12,12,22,38,1.90
2009,12,12,22,39,1.80
2009,12,12,22,40,1.80
2009,12,12,22,41,1.80
2009,12,12,22,42,1.80
2009,12,12,22,43,1.80
2009,12,12,22,44,1.80
2009,12,12,22,45,1.80
2009,12,12,22,46,1.80
2009,12,12,22,47,1.80
2009,12,12,22,48,1.80
2009,12,12,22,49,1.80
2009,12,12,22,50,1.80
2009,12,12,22,51,1.80
2009,12,12,22,52,1.80
2009,12,12,22,53,1.80
2009,12,12,22,54,1.80
2009,12,12,22,55,1.80
2009,12,12,22,56,1.80
2009,12,12,22,57,1.80
2009,12,12,22,58,1.80
2009,12,12,22,59,1.80
2009,12,12,23,00,1.90
2009,12,12,23,01,1.90
2009,12,12,23,02,1.90
2009,12,12,23,03,1.90
2009,12,12,23,04,1.90
2009,12,12,23,05,1.90
2009,12,12,23,06,1.90
2009,12,12,23,07,1.90